| time (UTC) | temp F | wind direction | speed MPH | gust MPH | rain 1hr in | rain 24hr in | rain mn in | humidity % | barometer mb |
| 20260901201537 | 62 | 0.0 | 0.0 | 0.00 | 0.00 | 0.00 | 75 | 1021.6 | |
| 20260901200517 | 62 | 0.0 | 0.0 | 0.00 | 0.00 | 0.00 | 75 | 1021.7 | |
| 20260901195517 | 62 | 0.0 | 0.0 | 0.00 | 0.00 | 0.00 | 74 | 1021.5 | |
| 20260901194516 | 62 | 0.0 | 0.0 | 0.00 | 0.00 | 0.00 | 74 | 1021.6 | |
| 20260901193536 | 63 | 0.0 | 0.0 | 0.00 | 0.00 | 0.00 | 73 | 1021.5 | |
| 20260901191516 | 64 | 0.0 | 0.0 | 0.00 | 0.00 | 0.00 | 72 | 1021.1 | |
| 20260901190517 | 65 | 0.0 | 0.0 | 0.00 | 0.00 | 0.00 | 70 | 1021.2 | |
| 20260901185517 | 65 | 0.0 | 0.0 | 0.00 | 0.00 | 0.00 | 69 | 1021.0 | |
| 20260901184517 | 66 | 0.0 | 0.0 | 0.00 | 0.00 | 0.00 | 69 | 1021.0 | |
| 20260901183517 | 67 | 0.0 | 0.0 | 0.00 | 0.00 | 0.00 | 67 | 1021.0 | |
| 20260901182516 | 68 | 0.0 | 0.0 | 0.00 | 0.00 | 0.00 | 66 | 1020.8 | |
| 20260901181516 | 69 | 0.0 | 0.0 | 0.00 | 0.00 | 0.00 | 65 | 1020.7 | |
| 20260901180516 | 70 | 0.0 | 0.0 | 0.00 | 0.00 | 0.00 | 64 | 1020.6 | |
| 20260901175516 | 71 | 0.0 | 0.0 | 0.00 | 0.00 | 0.00 | 64 | 1020.7 | |
| 20260901174556 | 72 | 0.0 | 0.0 | 0.00 | 0.00 | 0.00 | 63 | 1020.5 | |
| 20260901173516 | 72 | 0.0 | 0.0 | 0.00 | 0.00 | 0.00 | 63 | 1020.5 | |
| 20260901172516 | 73 | 0.0 | 0.0 | 0.00 | 0.00 | 0.00 | 62 | 1020.6 | |
| 20260901171516 | 73 | 0.0 | 0.0 | 0.00 | 0.00 | 0.00 | 61 | 1020.4 | |
| 20260901170516 | 73 | 0.0 | 0.0 | 0.00 | 0.00 | 0.00 | 58 | 1020.4 | |
| 20260901165536 | 73 | 0.0 | 0.0 | 0.00 | 0.00 | 0.00 | 58 | 1020.5 | |
| 20260901164517 | 73 | 0.0 | 0.0 | 0.00 | 0.00 | 0.00 | 57 | 1020.5 | |
| 20260901163516 | 74 | 0.0 | 0.0 | 0.00 | 0.00 | 0.00 | 53 | 1020.6 | |
| 20260901162516 | 74 | 0.0 | 0.0 | 0.00 | 0.00 | 0.00 | 51 | 1020.7 | |
| 20260901161516 | 74 | 0.0 | 0.0 | 0.00 | 0.00 | 0.00 | 52 | 1020.8 | |
| 20260901160516 | 75 | 0.0 | 2.0 | 0.00 | 0.00 | 0.00 | 51 | 1020.9 | |
| 20260901155536 | 75 | 0.0 | 3.0 | 0.00 | 0.00 | 0.00 | 50 | 1020.8 | |
| 20260901154516 | 75 | 0.0 | 1.0 | 0.00 | 0.00 | 0.00 | 53 | 1020.8 | |
| 20260901153516 | 75 | 0.0 | 1.0 | 0.00 | 0.00 | 0.00 | 49 | 1020.8 | |
| 20260901152536 | 75 | 0.0 | 1.0 | 0.00 | 0.00 | 0.00 | 50 | 1020.7 | |
| 20260901151516 | 75 | 0.0 | 2.0 | 0.00 | 0.00 | 0.00 | 48 | 1020.7 | |
| 20260901150516 | 75 | 0.0 | 3.0 | 0.00 | 0.00 | 0.00 | 52 | 1020.7 | |
| 20260901145536 | 75 | 0.0 | 2.0 | 0.00 | 0.00 | 0.00 | 50 | 1020.7 | |
| 20260901144516 | 75 | 0.0 | 3.0 | 0.00 | 0.00 | 0.00 | 52 | 1020.8 | |
| 20260901143516 | 75 | 0.0 | 2.0 | 0.00 | 0.00 | 0.00 | 53 | 1020.7 | |
| 20260901142536 | 75 | 0.0 | 3.0 | 0.00 | 0.00 | 0.00 | 51 | 1021.0 | |
| 20260901141516 | 74 | 0.0 | 1.0 | 0.00 | 0.00 | 0.00 | 55 | 1020.9 | |
| 20260901140516 | 76 | 0.0 | 2.0 | 0.00 | 0.00 | 0.00 | 53 | 1021.1 | |
| 20260901135516 | 76 | 338 | 1.0 | 3.0 | 0.00 | 0.00 | 0.00 | 50 | 1021.2 |
| 20260901134516 | 76 | 338 | 1.0 | 5.0 | 0.00 | 0.00 | 0.00 | 52 | 1021.1 |
| 20260901133536 | 76 | 293 | 1.0 | 3.0 | 0.00 | 0.00 | 0.00 | 50 | 1021.2 |
| 20260901132516 | 77 | 0.0 | 3.0 | 0.00 | 0.00 | 0.00 | 49 | 1021.3 | |
| 20260901131516 | 77 | 0.0 | 2.0 | 0.00 | 0.00 | 0.00 | 47 | 1021.4 | |
| 20260901130516 | 77 | 0.0 | 2.0 | 0.00 | 0.00 | 0.00 | 51 | 1021.5 | |
| 20260901125516 | 77 | 0.0 | 4.0 | 0.00 | 0.00 | 0.00 | 49 | 1021.6 | |
| 20260901124516 | 77 | 338 | 1.0 | 3.0 | 0.00 | 0.00 | 0.00 | 50 | 1021.6 |
| 20260901123536 | 77 | 0.0 | 2.0 | 0.00 | 0.00 | 0.00 | 48 | 1021.7 | |
| 20260901122516 | 77 | 0.0 | 4.0 | 0.00 | 0.00 | 0.00 | 51 | 1021.8 | |
| 20260901121516 | 76 | 0.0 | 3.0 | 0.00 | 0.00 | 0.00 | 49 | 1021.8 | |
| 20260901120536 | 77 | 0.0 | 5.0 | 0.00 | 0.00 | 0.00 | 49 | 1021.8 | |
| 20260901115516 | 76 | 0.0 | 3.0 | 0.00 | 0.00 | 0.00 | 46 | 1021.8 | |
| 20260901114516 | 75 | 293 | 1.0 | 6.0 | 0.00 | 0.00 | 0.00 | 50 | 1021.8 |
| 20260901113516 | 76 | 0.0 | 1.0 | 0.00 | 0.00 | 0.00 | 52 | 1021.9 | |
| 20260901112516 | 75 | 0.0 | 4.0 | 0.00 | 0.00 | 0.00 | 50 | 1022.1 | |
| 20260901111516 | 76 | 0.0 | 2.0 | 0.00 | 0.00 | 0.00 | 57 | 1022.1 | |
| 20260901110516 | 76 | 0.0 | 3.0 | 0.00 | 0.00 | 0.00 | 54 | 1022.2 | |
| 20260901105516 | 74 | 0.0 | 5.0 | 0.00 | 0.00 | 0.00 | 57 | 1022.2 | |
| 20260901104516 | 74 | 0.0 | 1.0 | 0.00 | 0.00 | 0.00 | 60 | 1022.3 | |
| 20260901103516 | 73 | 0.0 | 2.0 | 0.00 | 0.00 | 0.00 | 62 | 1022.3 | |
| 20260901102516 | 73 | 293 | 1.0 | 4.0 | 0.00 | 0.00 | 0.00 | 60 | 1022.3 |
| 20260901101536 | 72 | 0.0 | 1.0 | 0.00 | 0.00 | 0.00 | 64 | 1022.3 | |
| 20260901100516 | 71 | 0.0 | 4.0 | 0.00 | 0.00 | 0.00 | 65 | 1022.5 | |
| 20260901095536 | 72 | 0.0 | 2.0 | 0.00 | 0.00 | 0.00 | 62 | 1022.6 | |
| 20260901094516 | 73 | 0.0 | 2.0 | 0.00 | 0.00 | 0.00 | 69 | 1022.8 | |
| 20260901093516 | 71 | 0.0 | 2.0 | 0.00 | 0.00 | 0.00 | 65 | 1022.6 | |
| 20260901092616 | 70 | 0.0 | 0.0 | 0.00 | 0.00 | 0.00 | 71 | 1022.7 | |
| 20260901091516 | 70 | 0.0 | 1.0 | 0.00 | 0.00 | 0.00 | 71 | 1022.8 | |
| 20260901090516 | 70 | 0.0 | 0.0 | 0.00 | 0.00 | 0.00 | 69 | 1022.8 | |
| 20260901085516 | 68 | 0.0 | 0.0 | 0.00 | 0.00 | 0.00 | 72 | 1022.7 | |
| 20260901084516 | 70 | 0.0 | 1.0 | 0.00 | 0.00 | 0.00 | 69 | 1022.8 | |
| 20260901083516 | 70 | 0.0 | 0.0 | 0.00 | 0.00 | 0.00 | 71 | 1022.8 | |
| 20260901082536 | 69 | 0.0 | 2.0 | 0.00 | 0.00 | 0.00 | 71 | 1022.8 | |
| 20260901081516 | 70 | 0.0 | 2.0 | 0.00 | 0.00 | 0.00 | 71 | 1022.9 | |
| 20260901080516 | 70 | 0.0 | 1.0 | 0.00 | 0.00 | 0.00 | 74 | 1022.9 | |
| 20260901075516 | 70 | 0.0 | 0.0 | 0.00 | 0.00 | 0.00 | 77 | 1022.8 | |
| 20260901074516 | 68 | 0.0 | 0.0 | 0.00 | 0.00 | 0.00 | 79 | 1022.6 | |
| 20260901073516 | 67 | 0.0 | 1.0 | 0.00 | 0.00 | 0.00 | 82 | 1022.5 | |
| 20260901072516 | 65 | 0.0 | 0.0 | 0.00 | 0.00 | 0.00 | 85 | 1022.5 | |
| 20260901071516 | 64 | 0.0 | 0.0 | 0.00 | 0.00 | 0.00 | 87 | 1022.4 | |
| 20260901070516 | 63 | 0.0 | 0.0 | 0.00 | 0.00 | 0.00 | 89 | 1022.3 | |
| 20260901065516 | 62 | 0.0 | 0.0 | 0.00 | 0.00 | 0.00 | 91 | 1022.5 | |
| 20260901064515 | 60 | 0.0 | 0.0 | 0.00 | 0.00 | 0.00 | 91 | 1022.4 | |
| 20260901063516 | 59 | 0.0 | 0.0 | 0.00 | 0.00 | 0.00 | 91 | 1022.3 | |
| 20260901062516 | 58 | 0.0 | 0.0 | 0.00 | 0.00 | 0.00 | 91 | 1022.3 | |
| 20260901061516 | 57 | 0.0 | 0.0 | 0.00 | 0.00 | 0.00 | 91 | 1022.2 | |
| 20260901060516 | 57 | 0.0 | 0.0 | 0.00 | 0.00 | 0.00 | 90 | 1022.3 | |
| 20260901055516 | 56 | 0.0 | 0.0 | 0.00 | 0.00 | 0.00 | 89 | 1022.2 | |
| 20260901054516 | 56 | 0.0 | 0.0 | 0.00 | 0.00 | 0.00 | 89 | 1022.0 | |
| 20260901053536 | 56 | 0.0 | 0.0 | 0.00 | 0.00 | 0.00 | 88 | 1022.0 | |
| 20260901052515 | 56 | 0.0 | 0.0 | 0.00 | 0.00 | 0.00 | 87 | 1022.0 | |
| 20260901051515 | 56 | 0.0 | 0.0 | 0.00 | 0.00 | 0.00 | 87 | 1022.0 | |
| 20260901050515 | 56 | 0.0 | 0.0 | 0.00 | 0.00 | 0.00 | 87 | 1022.0 | |
| 20260901045516 | 56 | 0.0 | 0.0 | 0.00 | 0.00 | 0.00 | 86 | 1021.9 | |
| 20260901044515 | 56 | 0.0 | 0.0 | 0.00 | 0.00 | 0.00 | 86 | 1021.9 | |
| 20260901043515 | 56 | 0.0 | 0.0 | 0.00 | 0.00 | 0.00 | 86 | 1021.8 | |
| 20260901043015 | 56 | 0.0 | 0.0 | 0.00 | 0.00 | 0.00 | 86 | 1022.0 | |
| 20260901042016 | 56 | 0.0 | 0.0 | 0.00 | 0.00 | 0.00 | 85 | 1021.9 | |
| 20260901041015 | 57 | 0.0 | 0.0 | 0.00 | 0.00 | 0.00 | 85 | 1021.9 | |
| 20260901040016 | 57 | 0.0 | 0.0 | 0.00 | 0.00 | 0.00 | 84 | 1021.9 | |
| 20260901035015 | 57 | 0.0 | 0.0 | 0.00 | 0.00 | 0.00 | 84 | 1022.0 | |
| 20260901034016 | 57 | 0.0 | 0.0 | 0.00 | 0.00 | 0.00 | 83 | 1021.9 | |
| 20260901033015 | 57 | 0.0 | 0.0 | 0.00 | 0.00 | 0.00 | 83 | 1021.9 | |
| 20260901032035 | 57 | 0.0 | 0.0 | 0.00 | 0.00 | 0.00 | 82 | 1022.0 | |
| 20260901031015 | 58 | 0.0 | 0.0 | 0.00 | 0.00 | 0.00 | 82 | 1021.9 | |
| 20260901030035 | 58 | 0.0 | 0.0 | 0.00 | 0.00 | 0.00 | 82 | 1022.1 | |
| 20260901025015 | 58 | 0.0 | 0.0 | 0.00 | 0.00 | 0.00 | 81 | 1022.2 | |
| 20260901024016 | 58 | 0.0 | 0.0 | 0.00 | 0.00 | 0.00 | 81 | 1022.2 | |
| 20260901023016 | 58 | 0.0 | 0.0 | 0.00 | 0.00 | 0.00 | 81 | 1022.2 | |
| 20260901022015 | 59 | 0.0 | 0.0 | 0.00 | 0.00 | 0.00 | 81 | 1022.1 | |
| 20260901021015 | 59 | 0.0 | 0.0 | 0.00 | 0.00 | 0.00 | 81 | 1022.1 | |
| 20260901020036 | 59 | 0.0 | 0.0 | 0.00 | 0.00 | 0.00 | 81 | 1022.0 | |
| 20260901015016 | 59 | 0.0 | 0.0 | 0.00 | 0.00 | 0.00 | 81 | 1022.0 | |
| 20260901014036 | 59 | 0.0 | 0.0 | 0.00 | 0.00 | 0.00 | 81 | 1022.1 | |
| 20260901013036 | 59 | 0.0 | 0.0 | 0.00 | 0.00 | 0.00 | 80 | 1022.1 | |
| 20260901012035 | 59 | 0.0 | 0.0 | 0.00 | 0.00 | 0.00 | 79 | 1022.1 | |
| 20260901011015 | 59 | 0.0 | 0.0 | 0.00 | 0.02 | 0.00 | 78 | 1022.1 | |
| 20260901010015 | 59 | 0.0 | 0.0 | 0.00 | 0.03 | 0.00 | 77 | 1022.1 | |
| 20260901005015 | 60 | 0.0 | 0.0 | 0.00 | 0.16 | 0.00 | 76 | 1022.1 | |
| 20260901004015 | 60 | 0.0 | 0.0 | 0.00 | 0.20 | 0.00 | 76 | 1022.1 | |
| 20260901003035 | 60 | 0.0 | 0.0 | 0.00 | 0.20 | 0.00 | 75 | 1022.1 | |
| 20260901002015 | 60 | 0.0 | 0.0 | 0.00 | 0.20 | 0.00 | 75 | 1022.0 | |
| 20260901001015 | 60 | 0.0 | 0.0 | 0.00 | 0.20 | 0.00 | 75 | 1022.1 | |
| 20260901000017 | 60 | 0.0 | 0.0 | 0.00 | 0.20 | 0.00 | 74 | 1022.0 | |
| 20260831235017 | 60 | 0.0 | 0.0 | 0.00 | 0.20 | 0.00 | 74 | 1022.0 | |
| 20260831234017 | 60 | 0.0 | 0.0 | 0.00 | 0.20 | 0.00 | 74 | 1022.1 | |
| 20260831233017 | 61 | 0.0 | 0.0 | 0.00 | 0.20 | 0.00 | 74 | 1021.9 | |
| 20260831232017 | 61 | 0.0 | 0.0 | 0.00 | 0.20 | 0.00 | 73 | 1021.9 | |
| 20260831231017 | 61 | 0.0 | 0.0 | 0.00 | 0.20 | 0.00 | 73 | 1021.9 | |
| 20260831230017 | 61 | 0.0 | 0.0 | 0.00 | 0.20 | 0.00 | 73 | 1021.8 | |
| 20260831225017 | 61 | 0.0 | 0.0 | 0.00 | 0.20 | 0.00 | 72 | 1021.7 | |
| 20260831224017 | 61 | 0.0 | 0.0 | 0.00 | 0.20 | 0.00 | 72 | 1021.6 | |
| 20260831223017 | 61 | 0.0 | 0.0 | 0.00 | 0.20 | 0.00 | 72 | 1021.7 | |
| 20260831222017 | 61 | 0.0 | 0.0 | 0.00 | 0.20 | 0.00 | 71 | 1021.6 | |
| 20260831221037 | 61 | 0.0 | 0.0 | 0.00 | 0.20 | 0.00 | 71 | 1021.7 | |
| 20260831220017 | 62 | 0.0 | 0.0 | 0.00 | 0.20 | 0.20 | 71 | 1021.6 | |
| 20260831215016 | 62 | 0.0 | 0.0 | 0.00 | 0.20 | 0.20 | 71 | 1021.6 | |
| 20260831214016 | 62 | 0.0 | 0.0 | 0.00 | 0.20 | 0.20 | 70 | 1021.5 | |
| 20260831213016 | 62 | 0.0 | 0.0 | 0.00 | 0.20 | 0.20 | 70 | 1021.5 | |
| 20260831212016 | 62 | 0.0 | 0.0 | 0.00 | 0.20 | 0.20 | 69 | 1021.4 | |
| 20260831211016 | 62 | 0.0 | 0.0 | 0.00 | 0.20 | 0.20 | 68 | 1021.3 | |
| 20260831210036 | 62 | 0.0 | 0.0 | 0.00 | 0.20 | 0.20 | 68 | 1021.3 | |
| 20260831205036 | 63 | 0.0 | 0.0 | 0.00 | 0.20 | 0.20 | 67 | 1021.4 | |
| 20260831204016 | 63 | 0.0 | 0.0 | 0.00 | 0.20 | 0.20 | 66 | 1021.1 | |
| 20260831203016 | 64 | 0.0 | 0.0 | 0.00 | 0.20 | 0.20 | 64 | 1021.0 | |
| 20260831202036 | 64 | 0.0 | 0.0 | 0.00 | 0.20 | 0.20 | 63 | 1021.0 |